AME4536 LUKK-LZIB

Flight info

Callsign AME4536
Flight time 1h 13m
Altitude 38000
Route NUNTA DCT REPTO DCT PITOK DCT KALIF DCT SLC N190 NIT
Aircraft A310/H-SDFGHIM1RTUWXY/LB1

Departure

Time 2026-05-04 18:30
Airport Chişinău International Airport (LUKK)

Arrival

Time 2026-05-04 19:44
Airport M. R. Štefánik Airport (LZIB)
Time Latitude Longitude Altitude Speed Heading
2026-05-04 18:17 46.93483 28.93300 407 ft 0 kts 278°
2026-05-04 18:23 46.93483 28.93297 414 ft 1 kts 278°
2026-05-04 18:24 46.93483 28.93279 407 ft 2 kts 266°
2026-05-04 18:24 46.93476 28.93250 411 ft 4 kts 246°
2026-05-04 18:24 46.93461 28.93210 409 ft 5 kts 241°
2026-05-04 18:24 46.93451 28.93154 408 ft 6 kts 271°
2026-05-04 18:25 46.93457 28.93082 407 ft 10 kts 279°
2026-05-04 18:25 46.93472 28.92967 407 ft 12 kts 277°
2026-05-04 18:25 46.93483 28.92840 410 ft 13 kts 277°
2026-05-04 18:25 46.93434 28.92759 414 ft 12 kts 188°
2026-05-04 18:26 46.93347 28.92742 408 ft 13 kts 187°
2026-05-04 18:26 46.93255 28.92722 413 ft 14 kts 199°
2026-05-04 18:26 46.93221 28.92602 412 ft 15 kts 278°
2026-05-04 18:26 46.93236 28.92445 411 ft 16 kts 277°
2026-05-04 18:27 46.93249 28.92282 413 ft 16 kts 277°
2026-05-04 18:27 46.93262 28.92121 408 ft 15 kts 276°
2026-05-04 18:27 46.93206 28.92023 413 ft 14 kts 197°
2026-05-04 18:27 46.93114 28.91988 411 ft 14 kts 190°
2026-05-04 18:28 46.93014 28.91985 409 ft 15 kts 177°
2026-05-04 18:28 46.92924 28.91991 412 ft 10 kts 177°
2026-05-04 18:28 46.92849 28.91997 409 ft 11 kts 177°
2026-05-04 18:28 46.92775 28.92022 406 ft 11 kts 146°
2026-05-04 18:29 46.92761 28.92138 408 ft 19 kts 90°
2026-05-04 18:29 46.92767 28.92481 408 ft 58 kts 88°
2026-05-04 18:29 46.92788 28.93418 414 ft 125 kts 88°
2026-05-04 18:29 46.92822 28.94959 496 ft 171 kts 88°
2026-05-04 18:30 46.93039 28.98436 2072 ft 167 kts 83°
2026-05-04 18:30 46.93168 29.00194 2730 ft 184 kts 83°
2026-05-04 18:30 46.93299 29.02138 3307 ft 201 kts 83°
2026-05-04 18:31 46.93665 29.04128 3989 ft 209 kts 53°
2026-05-04 18:31 46.94861 29.05288 4849 ft 216 kts 13°
2026-05-04 18:31 46.96358 29.04948 5789 ft 229 kts 337°
2026-05-04 18:31 46.97636 29.03422 6649 ft 251 kts 312°
2026-05-04 18:32 46.98318 29.00972 7468 ft 273 kts 286°
2026-05-04 18:32 46.98598 28.98163 8435 ft 284 kts 282°
2026-05-04 18:32 46.98850 28.95260 9471 ft 291 kts 283°
2026-05-04 18:32 46.99131 28.92312 10476 ft 297 kts 284°
2026-05-04 18:33 46.99446 28.89211 11006 ft 320 kts 284°
2026-05-04 18:33 46.99800 28.85904 11635 ft 337 kts 284°
2026-05-04 18:33 47.00185 28.82448 12342 ft 351 kts 284°
2026-05-04 18:33 47.00584 28.78862 13078 ft 364 kts 283°
2026-05-04 18:34 47.00983 28.75159 13882 ft 374 kts 283°
2026-05-04 18:34 47.01404 28.71342 14439 ft 388 kts 283°
2026-05-04 18:34 47.01849 28.67370 14915 ft 403 kts 283°
2026-05-04 18:34 47.02284 28.63270 15536 ft 412 kts 282°
2026-05-04 18:35 47.02725 28.59100 16298 ft 418 kts 282°
2026-05-04 18:35 47.03175 28.54883 17094 ft 422 kts 282°
2026-05-04 18:35 47.03637 28.50623 17853 ft 427 kts 282°
2026-05-04 18:35 47.04112 28.46315 18571 ft 431 kts 282°
2026-05-04 18:36 47.04589 28.41956 19238 ft 435 kts 281°
2026-05-04 18:36 47.05043 28.37562 19906 ft 439 kts 281°
2026-05-04 18:36 47.05498 28.33132 20580 ft 442 kts 281°
2026-05-04 18:36 47.05970 28.28671 21229 ft 446 kts 281°
2026-05-04 18:37 47.06450 28.24175 21922 ft 449 kts 281°
2026-05-04 18:37 47.06931 28.19635 22595 ft 453 kts 281°
2026-05-04 18:37 47.07416 28.15064 23244 ft 456 kts 281°
2026-05-04 18:37 47.07911 28.10458 23851 ft 460 kts 281°
2026-05-04 18:38 47.08397 28.05815 24410 ft 463 kts 280°
2026-05-04 18:38 47.08861 28.01133 24970 ft 466 kts 280°
2026-05-04 18:38 47.09347 27.96426 25530 ft 469 kts 281°
2026-05-04 18:38 47.09830 27.91676 26077 ft 473 kts 280°
2026-05-04 18:39 47.10308 27.86899 26611 ft 476 kts 280°
2026-05-04 18:39 47.10889 27.82128 27215 ft 477 kts 283°
2026-05-04 18:39 47.11625 27.77385 27792 ft 478 kts 285°
2026-05-04 18:39 47.12404 27.72671 28594 ft 475 kts 285°
2026-05-04 18:40 47.13169 27.67957 29345 ft 474 kts 285°
2026-05-04 18:40 47.13897 27.63251 30096 ft 473 kts 284°
2026-05-04 18:40 47.14603 27.58553 30732 ft 471 kts 284°
2026-05-04 18:40 47.15315 27.53880 31422 ft 468 kts 284°
2026-05-04 18:41 47.16022 27.49239 32127 ft 465 kts 284°
2026-05-04 18:41 47.16733 27.44632 32825 ft 462 kts 284°
2026-05-04 18:41 47.17446 27.40046 33508 ft 459 kts 284°
2026-05-04 18:41 47.18159 27.35497 34155 ft 457 kts 284°
2026-05-04 18:42 47.18853 27.30956 34657 ft 456 kts 283°
2026-05-04 18:42 47.19535 27.26417 35116 ft 456 kts 284°
2026-05-04 18:42 47.20233 27.21885 35567 ft 456 kts 284°
2026-05-04 18:42 47.20908 27.17336 36007 ft 456 kts 283°
2026-05-04 18:43 47.21595 27.12802 36450 ft 455 kts 284°
2026-05-04 18:43 47.22272 27.08269 36884 ft 455 kts 283°
2026-05-04 18:43 47.22941 27.03736 37313 ft 454 kts 284°
2026-05-04 18:43 47.23624 26.99210 37712 ft 454 kts 283°
2026-05-04 18:44 47.24289 26.94655 37932 ft 459 kts 283°
2026-05-04 18:44 47.25642 26.85516 38013 ft 457 kts 283°
2026-05-04 18:45 47.26981 26.76399 38021 ft 457 kts 283°
2026-05-04 18:45 47.28317 26.67283 38022 ft 456 kts 283°
2026-05-04 18:46 47.29627 26.58170 38026 ft 456 kts 284°
2026-05-04 18:46 47.30938 26.49055 38028 ft 456 kts 283°
2026-05-04 18:47 47.32244 26.39928 38040 ft 456 kts 283°
2026-05-04 18:47 47.33545 26.30806 38042 ft 456 kts 283°
2026-05-04 18:48 47.34841 26.21683 38045 ft 456 kts 283°
2026-05-04 18:48 47.36126 26.12548 38053 ft 456 kts 283°
2026-05-04 18:49 47.37399 26.03415 38050 ft 456 kts 283°
2026-05-04 18:49 47.38655 25.94272 38056 ft 456 kts 283°
2026-05-04 18:50 47.39920 25.85122 38056 ft 456 kts 283°
2026-05-04 18:50 47.41177 25.75978 38062 ft 456 kts 283°
2026-05-04 18:51 47.42430 25.66824 38077 ft 456 kts 283°
2026-05-04 18:51 47.43657 25.57670 38062 ft 455 kts 283°
2026-05-04 18:52 47.44888 25.48519 38088 ft 456 kts 283°
2026-05-04 18:52 47.46107 25.39347 38089 ft 456 kts 283°
2026-05-04 18:53 47.47332 25.30185 38088 ft 456 kts 283°
2026-05-04 18:53 47.48548 25.21017 38086 ft 455 kts 283°
2026-05-04 18:54 47.49756 25.11840 38098 ft 455 kts 283°
2026-05-04 18:54 47.50960 25.02672 38090 ft 455 kts 283°
2026-05-04 18:55 47.52162 24.93506 38093 ft 455 kts 283°
2026-05-04 18:55 47.53927 24.79741 38096 ft 455 kts 282°
2026-05-04 18:56 47.55094 24.70568 38102 ft 455 kts 282°
2026-05-04 18:56 47.56258 24.61381 38092 ft 455 kts 282°
2026-05-04 18:57 47.57396 24.52196 38094 ft 454 kts 282°
2026-05-04 18:57 47.58540 24.43016 38092 ft 454 kts 282°
2026-05-04 18:58 47.59675 24.33827 38091 ft 454 kts 282°
2026-05-04 18:58 47.60801 24.24646 38094 ft 454 kts 282°
2026-05-04 18:59 47.61924 24.15463 38095 ft 454 kts 282°
2026-05-04 18:59 47.63039 24.06267 38086 ft 454 kts 281°
2026-05-04 19:00 47.64232 23.97102 38095 ft 453 kts 285°
2026-05-04 19:00 47.66002 23.88168 38088 ft 453 kts 289°
2026-05-04 19:01 47.67912 23.79287 38086 ft 453 kts 289°
2026-05-04 19:01 47.69768 23.70383 38074 ft 453 kts 288°
2026-05-04 19:02 47.71595 23.61458 38078 ft 453 kts 288°
2026-05-04 19:02 47.73413 23.52532 38074 ft 453 kts 288°
2026-05-04 19:03 47.75232 23.43595 37917 ft 454 kts 288°
2026-05-04 19:03 47.76144 23.39115 37640 ft 453 kts 288°
2026-05-04 19:03 47.77061 23.34635 37356 ft 453 kts 288°
2026-05-04 19:04 47.77963 23.30159 37075 ft 453 kts 288°
2026-05-04 19:04 47.78861 23.25680 36817 ft 453 kts 288°
2026-05-04 19:04 47.79760 23.21200 36546 ft 453 kts 288°
2026-05-04 19:04 47.80656 23.16716 36268 ft 453 kts 288°
2026-05-04 19:05 47.81549 23.12219 36008 ft 454 kts 288°
2026-05-04 19:05 47.82434 23.07725 35750 ft 454 kts 288°
2026-05-04 19:05 47.83315 23.03224 35500 ft 454 kts 288°
2026-05-04 19:05 47.84210 22.98728 35243 ft 454 kts 289°
2026-05-04 19:06 47.85119 22.94235 35002 ft 455 kts 289°
2026-05-04 19:06 47.86005 22.89717 34747 ft 455 kts 289°
2026-05-04 19:06 47.86904 22.85211 34507 ft 455 kts 289°
2026-05-04 19:06 47.87804 22.80702 34274 ft 455 kts 289°
2026-05-04 19:07 47.88696 22.76192 34144 ft 455 kts 289°
2026-05-04 19:07 47.89582 22.71675 34096 ft 455 kts 289°
2026-05-04 19:07 47.91350 22.62611 34063 ft 457 kts 289°
2026-05-04 19:08 47.93107 22.53540 34058 ft 456 kts 289°
2026-05-04 19:08 47.94853 22.44464 34057 ft 456 kts 289°
2026-05-04 19:09 47.96599 22.35380 34057 ft 456 kts 289°
2026-05-04 19:09 47.98332 22.26297 34061 ft 456 kts 289°
2026-05-04 19:10 47.99771 22.18726 34056 ft 456 kts 289°
2026-05-04 19:10 48.01769 22.08108 34056 ft 456 kts 288°
2026-05-04 19:11 48.03473 21.99014 34053 ft 456 kts 288°
2026-05-04 19:11 48.05172 21.89919 34046 ft 455 kts 288°
2026-05-04 19:12 48.07713 21.76270 34046 ft 455 kts 288°
2026-05-04 19:13 48.09415 21.67177 34048 ft 455 kts 288°
2026-05-04 19:13 48.10909 21.57989 34045 ft 458 kts 280°
2026-05-04 19:14 48.11443 21.48504 34046 ft 459 kts 276°
2026-05-04 19:14 48.11992 21.39025 34050 ft 458 kts 278°
2026-05-04 19:15 48.12634 21.29560 34051 ft 458 kts 278°
2026-05-04 19:15 48.13338 21.18521 34054 ft 458 kts 277°
2026-05-04 19:16 48.13852 21.10623 34062 ft 458 kts 277°
2026-05-04 19:16 48.14426 21.01147 34065 ft 458 kts 277°
2026-05-04 19:17 48.15022 20.91677 34052 ft 458 kts 277°
2026-05-04 19:17 48.15607 20.82198 34054 ft 458 kts 277°
2026-05-04 19:18 48.16198 20.72732 34060 ft 457 kts 277°
2026-05-04 19:18 48.16776 20.63265 34059 ft 458 kts 276°
2026-05-04 19:19 48.17328 20.53789 34055 ft 457 kts 276°
2026-05-04 19:19 48.17860 20.44321 34059 ft 457 kts 276°
2026-05-04 19:20 48.18396 20.34862 34060 ft 456 kts 276°
2026-05-04 19:20 48.18939 20.25404 34056 ft 456 kts 276°
2026-05-04 19:21 48.19489 20.15965 34054 ft 455 kts 276°
2026-05-04 19:21 48.20021 20.06532 34054 ft 454 kts 275°
2026-05-04 19:22 48.20525 19.97121 34052 ft 454 kts 275°
2026-05-04 19:22 48.21017 19.87723 34055 ft 453 kts 275°
2026-05-04 19:23 48.21502 19.78335 34051 ft 452 kts 275°
2026-05-04 19:23 48.21984 19.68966 34053 ft 451 kts 275°
2026-05-04 19:24 48.22462 19.59610 34048 ft 451 kts 275°
2026-05-04 19:24 48.22924 19.50252 34045 ft 450 kts 275°
2026-05-04 19:25 48.23386 19.40909 33967 ft 451 kts 275°
2026-05-04 19:25 48.23609 19.36227 33619 ft 451 kts 275°
2026-05-04 19:25 48.23830 19.31531 33084 ft 451 kts 275°
2026-05-04 19:25 48.24054 19.26872 32683 ft 447 kts 275°
2026-05-04 19:26 48.24286 19.22236 32290 ft 446 kts 275°
2026-05-04 19:26 48.24503 19.17619 31903 ft 444 kts 275°
2026-05-04 19:26 48.24717 19.13023 31527 ft 442 kts 275°
2026-05-04 19:26 48.24928 19.08449 31140 ft 441 kts 275°
2026-05-04 19:27 48.25144 19.03807 30649 ft 450 kts 275°
2026-05-04 19:27 48.25363 18.99112 30130 ft 455 kts 275°
2026-05-04 19:27 48.25586 18.94369 29316 ft 459 kts 275°
2026-05-04 19:27 48.25796 18.89590 28360 ft 461 kts 274°
2026-05-04 19:28 48.26010 18.84792 27419 ft 463 kts 274°
2026-05-04 19:28 48.26222 18.79980 26531 ft 463 kts 274°
2026-05-04 19:28 48.26435 18.75200 25649 ft 456 kts 274°
2026-05-04 19:28 48.26633 18.70503 24806 ft 449 kts 274°
2026-05-04 19:29 48.26838 18.65878 23985 ft 442 kts 274°
2026-05-04 19:29 48.27032 18.61320 23095 ft 435 kts 274°
2026-05-04 19:29 48.27219 18.56829 22147 ft 429 kts 274°
2026-05-04 19:29 48.27411 18.52396 21230 ft 423 kts 273°
2026-05-04 19:30 48.27610 18.48037 20343 ft 417 kts 273°
2026-05-04 19:30 48.27794 18.43741 19485 ft 411 kts 272°
2026-05-04 19:30 48.27969 18.39505 18645 ft 405 kts 272°
2026-05-04 19:30 48.28152 18.35328 17755 ft 399 kts 272°
2026-05-04 19:31 48.28321 18.31198 16833 ft 394 kts 272°
2026-05-04 19:31 48.28469 18.27131 15961 ft 388 kts 271°
2026-05-04 19:31 48.28620 18.23144 15325 ft 378 kts 271°
2026-05-04 19:31 48.28771 18.19286 14830 ft 365 kts 271°
2026-05-04 19:32 48.28922 18.15550 14278 ft 355 kts 271°
2026-05-04 19:32 48.29075 18.11882 13560 ft 351 kts 271°
2026-05-04 19:32 48.29230 18.08243 12781 ft 348 kts 271°
2026-05-04 19:32 48.29384 18.04648 12007 ft 344 kts 271°
2026-05-04 19:33 48.29511 18.01094 11289 ft 340 kts 270°
2026-05-04 19:33 48.29640 17.97584 10638 ft 335 kts 271°
2026-05-04 19:33 48.29772 17.94162 10207 ft 323 kts 271°
2026-05-04 19:33 48.29884 17.90873 9849 ft 310 kts 270°
2026-05-04 19:34 48.30000 17.87699 9453 ft 299 kts 271°
2026-05-04 19:34 48.30110 17.84635 9093 ft 289 kts 270°
2026-05-04 19:34 48.30216 17.81681 8839 ft 279 kts 270°
2026-05-04 19:34 48.30319 17.78840 8585 ft 268 kts 270°
2026-05-04 19:35 48.30423 17.76102 8330 ft 259 kts 270°
2026-05-04 19:35 48.30527 17.73431 8038 ft 254 kts 270°
2026-05-04 19:35 48.30629 17.70791 7600 ft 254 kts 270°
2026-05-04 19:35 48.30730 17.68151 7157 ft 254 kts 270°
2026-05-04 19:36 48.30829 17.65498 6665 ft 256 kts 270°
2026-05-04 19:36 48.30919 17.62839 6230 ft 255 kts 270°
2026-05-04 19:36 48.31007 17.60203 5883 ft 250 kts 269°
2026-05-04 19:36 48.31088 17.57629 5604 ft 243 kts 269°
2026-05-04 19:37 48.31174 17.55133 5329 ft 237 kts 269°
2026-05-04 19:37 48.31256 17.52691 5037 ft 232 kts 268°
2026-05-04 19:37 48.31335 17.50296 4746 ft 228 kts 268°
2026-05-04 19:37 48.31421 17.47959 4515 ft 221 kts 268°
2026-05-04 19:38 48.31499 17.45685 4252 ft 216 kts 267°
2026-05-04 19:38 48.31567 17.43469 4019 ft 209 kts 264°
2026-05-04 19:38 48.31139 17.41581 3830 ft 184 kts 224°
2026-05-04 19:38 48.30225 17.40312 3633 ft 177 kts 218°
2026-05-04 19:39 48.29342 17.39082 3542 ft 171 kts 221°
2026-05-04 19:39 48.28499 17.37863 3289 ft 165 kts 220°
2026-05-04 19:39 48.27698 17.36702 3067 ft 157 kts 220°
2026-05-04 19:39 48.26937 17.35601 2862 ft 147 kts 220°
2026-05-04 19:40 48.26235 17.34584 2696 ft 135 kts 218°
2026-05-04 19:40 48.25569 17.33623 2504 ft 129 kts 218°
2026-05-04 19:40 48.24940 17.32715 2348 ft 124 kts 218°
2026-05-04 19:40 48.24324 17.31824 2192 ft 122 kts 218°
2026-05-04 19:41 48.23725 17.30937 2096 ft 122 kts 218°
2026-05-04 19:41 48.23130 17.30030 1864 ft 121 kts 218°
2026-05-04 19:41 48.22535 17.29175 1727 ft 117 kts 215°
2026-05-04 19:41 48.21936 17.28336 1630 ft 120 kts 216°
2026-05-04 19:42 48.21318 17.27490 1392 ft 120 kts 217°
2026-05-04 19:42 48.20705 17.26595 1239 ft 130 kts 221°
2026-05-04 19:42 48.20037 17.25588 1056 ft 142 kts 221°
2026-05-04 19:42 48.19313 17.24557 878 ft 147 kts 220°
2026-05-04 19:43 48.18553 17.23514 685 ft 150 kts 221°
2026-05-04 19:43 48.17819 17.22428 476 ft 145 kts 222°
2026-05-04 19:43 48.17141 17.21474 425 ft 121 kts 223°
2026-05-04 19:43 48.16611 17.20709 427 ft 90 kts 223°
2026-05-04 19:44 48.16330 17.20306 427 ft 21 kts 225°
2026-05-04 19:44 48.16321 17.20177 435 ft 14 kts 305°
2026-05-04 19:44 48.16361 17.20112 433 ft 3 kts 313°
2026-05-04 19:44 48.16371 17.20096 428 ft 3 kts 313°
2026-05-04 19:45 48.16385 17.20074 432 ft 0 kts 313°
2026-05-04 19:45 48.16387 17.20070 433 ft 1 kts 312°
2026-05-04 19:45 48.16396 17.20056 428 ft 3 kts 312°
2026-05-04 19:45 48.16397 17.20053 432 ft 0 kts 312°
2026-05-04 19:46 48.16414 17.20036 433 ft 8 kts 336°
2026-05-04 19:46 48.16475 17.20079 432 ft 11 kts 37°
2026-05-04 19:47 48.16538 17.20159 434 ft 13 kts 40°
2026-05-04 19:47 48.16609 17.20250 433 ft 14 kts 41°
2026-05-04 19:47 48.16687 17.20352 428 ft 16 kts 41°
2026-05-04 19:47 48.16771 17.20466 438 ft 17 kts 43°
2026-05-04 19:48 48.16859 17.20595 423 ft 18 kts 46°
2026-05-04 19:48 48.16949 17.20739 433 ft 20 kts 47°
2026-05-04 19:48 48.17012 17.20843 423 ft 8 kts 42°
2026-05-04 19:48 48.17056 17.20825 424 ft 7 kts 314°
2026-05-04 19:49 48.17094 17.20761 429 ft 9 kts 311°
2026-05-04 19:49 48.17132 17.20698 431 ft 7 kts 312°
2026-05-04 19:49 48.17172 17.20637 429 ft 9 kts 315°
2026-05-04 19:49 48.17222 17.20563 422 ft 11 kts 315°
2026-05-04 19:50 48.17269 17.20491 432 ft 8 kts 315°
2026-05-04 19:50 48.17290 17.20414 426 ft 8 kts 257°
2026-05-04 19:50 48.17254 17.20351 432 ft 7 kts 188°
2026-05-04 19:50 48.17239 17.20398 429 ft 3 kts 80°
2026-05-04 19:51 48.17240 17.20408 424 ft 2 kts 79°
2026-05-04 19:51 48.17241 17.20417 425 ft 0 kts 79°